Montana Department of Transportation

Main Content

Accidents and Incidents Report

Hourly Weather Roundup

ASUS45 KTFX 181910

RWRMT 

MONTANA REGIONAL WEATHER ROUNDUP

NATIONAL WEATHER SERVICE GREAT FALLS MT

100 PM MDT MON MAR 18 2019



NOTE: "FAIR" INDICATES FEW OR NO CLOUDS BELOW 12000 FEET WITH NO

SIGNIFICANT WEATHER AND/OR OBSTRUCTIONS TO VISIBILITY.



MTZ001.007-043-182000-

WEST OF THE DIVIDE

  

CITY           SKY/WX    TMP DP  RH WIND       PRES   REMARKS

KALISPELL      FAIR      41  26  55 CALM      30.37F                  

MISSOULA       FAIR      33  24  69 W3        30.36F                  

BUTTE          FAIR      32  19  58 CALM      30.32F                  

MULLAN PASS    FAIR      42  17  36 VRB5      30.31R                  

ANACONDA         N/A     30  18  59 CALM      30.33R                  

DEER LODGE       N/A     34  18  51 CALM      30.36F                  

HAMILTON       SUNNY     34  25  69 N5        30.35S                  

LIBBY            N/A     52  27  37 CALM      30.36                   

PLAINS           N/A     38  27  65 CALM      30.35F                  

RONAN            N/A     30  25  80 CALM      30.38F                  

--------------------------------



MTZ008-052.055-182000-

SOUTHWEST MONTANA

  

CITY           SKY/WX    TMP DP  RH WIND       PRES   REMARKS

BOZEMAN        FAIR      31  20  63 CALM      30.34F                  

DILLON         FAIR      31  20  63 S7        30.30F WCI  24          

ENNIS          SUNNY     27  19  74 CALM      30.34F                  

W YELLOWSTONE  FAIR      36  18  48 MISG      30.23F                  

TWIN BRIDGES     N/A     30  17  58 E2        30.27                   

--------------------------------



MTZ009-010-012-014-046-048-049-054-182000-

EAST SLOPES AND CENTRAL MONTANA

  

CITY           SKY/WX    TMP DP  RH WIND       PRES   REMARKS

CUT BANK       FAIR      44  29  55 NW14      30.28F                  

GREAT FALLS    FAIR      33  25  72 W9        30.29S WCI  25          

MALMSTROM AFB  SUNNY     38  24  56 W13       30.30F WCI  30          

HELENA         FAIR      29  20  69 NE3       30.35F HAZE             

AUGUSTA        FAIR      39  27  60 CALM      30.29S                  

BOWMANS CRNR   FAIR      30  23  75 SW7       30.28F WCI  23          

CHOTEAU          N/A     46  25  42 N9        30.28S                  

CONRAD           N/A     41  31  68 W10       30.28                   

FAIRFIELD      FAIR      38  26  61 CALM      30.29S                  

RAYNESFORD     FAIR      40  22  48 SW3       30.28F                  

ULM            FAIR      35  26  71 CALM      30.30F                  

WHITE SULPHUR    N/A     25  19  80 CALM      30.28F                  

--------------------------------



MTZ011-013-016-021-045-047-050-051-182000-

NORTH CENTRAL MONTANA

  

CITY           SKY/WX    TMP DP  RH WIND       PRES   REMARKS

HAVRE          FAIR      34  26  72 SW22      30.25F WCI  22          

LEWISTOWN      FAIR      37  26  64 W9        30.25S WCI  30          

N BAR RANCH    FAIR      41  19  42 NW18      30.24S                  

CHINOOK          N/A     39  28  65 W17G23    30.23F WCI  30          

DENTON         FAIR      39  28  65 W12       30.22S WCI  31          

GEYSER         FAIR      40  25  53 W18       30.25F                  

GRASS RANGE    FAIR      43  22  43 W23       30.19F                  

JUDITH GAP     FAIR      37  22  55 N5        30.24F                  

ROY            FAIR      42  26  52 W20       30.21R                  

STANFORD       FAIR      40  27  58 NW14      30.24F                  

WINIFRED       FAIR      37  28  69 W10       30.23F WCI  30          

--------------------------------



MTZ017.020-022.027-061-062-182000-

NORTHEAST MONTANA

  

CITY           SKY/WX    TMP DP  RH WIND       PRES   REMARKS

GLASGOW        FAIR      35  25  66 NW3       30.17F                  

GLENDIVE       FAIR      38  30  73 S12       30.18F WCI  30          

JORDAN           N/A     40  29  64 W12       30.19F                  

MALTA          SUNNY     39  30  70 W26       30.18F WCI  28SIDNEY         CLOUDY    40  29  64 W17       30.16F                  

WOLF POINT     PTSUNNY   35  27  72 W21       30.17F WCI  24          

POPLAR           N/A     34  27  75 W14       30.17F WCI  24          

SCOBEY           N/A     35  22  59 W14       30.09F WCI  26          

--------------------------------



MTZ028.42-056.058-182000-

SOUTHCENTRAL AND SOUTHEAST MONTANA

  

CITY           SKY/WX    TMP DP  RH WIND       PRES   REMARKS

BAKER          FAIR      35  28  75 W14       30.21F WCI  26          

BILLINGS       FAIR      38  25  59 SW13      30.25F WCI  30          

LIVINGSTON     FAIR      33  25  72 NW12      30.28F WCI  24          

MILES CITY     FAIR      34  29  82 SW12      30.23F WCI  25          

BIG TIMBER     SUNNY     37  23  56 W20       30.27F WCI  27          

FORSYTH          N/A     39  27  60 SW7       30.24F                  

HARLOWTON      FAIR      41  24  51 W17       30.24F                  

LAUREL           N/A     41  25  52 SW9       30.27F                  

--------------------------------



REGIONAL REPORTS...DAKOTAS

  

CITY           SKY/WX    TMP DP  RH WIND       PRES   REMARKS

WILLISTON      CLOUDY    35  28  75 SW16G26   30.12F WCI  25          

MINOT          CLOUDY    36  27  69 SW13G23   30.08F WCI  27          

DICKINSON      FAIR      35  26  69 SW15      30.12F WCI  25          

BEACH          FAIR      34  27  75 SW15      30.17F WCI  24          

CROSBY         PTSUNNY   34  34 100 SW14      30.08F WCI  24          

TIOGA          CLOUDY    34  32  93 W16       30.09F WCI  23          

WATFORD CITY   FAIR      37  30  75 W13       30.13F WCI  29          

BISMARCK       FAIR      33  21  61 SW12      30.19F WCI  24          

GRAND FORKS    PTSUNNY   33  23  66 S14       30.17F WCI  23          

FARGO          FAIR      31  24  75 S12       30.25F WCI  22          

BUFFALO SD       N/A     37  27  67 W9        30.18F WCI  30          

RAPID CITY     MOSUNNY   39  23  52 CALM      30.22F                  

--------------------------------



REGIONAL REPORTS...WYOMING/IDAHO/WASHINGTON

  

CITY           SKY/WX    TMP DP  RH WIND       PRES   REMARKS

GILLETTE       FAIR      44  30  57 NW7       30.21F                  

SHERIDAN       FAIR      44  31  60 W10       30.23F                  

BUFFALO WY     FAIR      41  27  57 NW9       30.22F                  

CODY           FAIR      43  21  41 N12       30.25F                  

YELLOWSTONE LA   N/A     28  13  53 CALM      30.25F                  

IDAHO FALLS    FAIR      45  21  38 N12       30.26S                  

SALMON         FAIR      38  25  59 CALM      30.33F                  

BOISE          FAIR      55  27  34 S7        30.24F                  

SPOKANE        FAIR      46  28  49 N7        30.33S                  

--------------------------------



REGIONAL REPORTS...ALBERTA

  

CITY           SKY/WX    TMP DP  RH WIND       PRES   REMARKS

CALGARY        MOSUNNY   52  16  24 NW12      30.26F                  

EDMONTON       SUNNY     45  27  49 W7        30.22F                  

FORT MCMURRAY  SUNNY     48  25  40 SW7       30.11F                  

HIGH LEVEL     CLOUDY    45  28  53 S3        30.00F                  

LETHBRIDGE     MOSUNNY   48  27  43 NW8       30.28F                  

LLOYDMINSTER   SUNNY     37  28  70 W7        30.18F                  

MEDICINE HAT   SUNNY     43  32  65 W12       30.23F                  

MILK RIVER       N/A     43  28  56 W8          N/A                   

PEACE RIVER    PTSUNNY   41  30  65 SW13      30.13F                  

PINCHER CREEK  SUNNY     41  25  52 NW7       30.28F                  

RAYMOND          N/A     41  32  70 W9          N/A                   

--------------------------------



REGIONAL REPORTS...SASKATCHEWAN

  

CITY           SKY/WX    TMP DP  RH WIND       PRES   REMARKS

CORONACH         N/A     37  30  75 W14         N/A  WCI  29          

CYPRESS HILLS    N/A     37  21  52 NW15G23     N/A  WCI  28          

ESTEVAN        SUNNY     37  32  81 W13       30.05F WCI  29          

PRINCE ALBERT  SUNNY     43  27  52 NW9       30.10R                  

REGINA         MOSUNNY   37  30  75 NW18      30.06F WCI  27          

ROCKGLEN         N/A     34  27  75 W13         N/A  WCI  25          

SASKATOON      SUNNY     36  28  75 W12       30.14S WCI  27          

SWIFT CURRENT  SUNNY     37  32  81 NW12      30.15R WCI  30          

VAL MARIE        N/A     36  30  80 W10         N/A  WCI  28          

--------------------------------